Theta_e
311 313 316 318 318 317 317 319 316 319 316 308 310 312 315 319 319 318 319 320 322 331 331 329 329 327 331 331 330 334 342 344 342 335 335 350 348 345 349 346 350 351 352 351 347 344 339 334 332 330 328 328 327 327 328 329 328 328 327 328 336 341 343 341 341 341 339 339 338 339 341 342 343 342 341 338 334 332 334 335 335 335 335 337 338 339 341 342 342 341 340 340 339 339 339 339 339
318 317 317 316 316 318 319 320 314 313 312 306 310 313 316 320 318 317 318 321 328 334 332 330 330 331 334 336 334 336 343 346 347 346 346 348 346 348 347 346 350 351 352 350 348 346 340 335 333 331 329 328 327 327 328 328 329 328 326 326 334 340 342 341 341 340 340 339 339 340 341 342 342 342 341 340 339 337 336 338 340 339 339 340 340 340 341 342 341 339 339 338 338 339 339 340 338
321 316 314 314 316 319 320 320 313 308 308 306 309 317 319 319 318 319 322 324 330 333 331 332 333 334 334 335 334 335 340 345 346 346 345 346 347 346 347 347 349 350 351 350 348 347 342 336 333 331 329 328 327 327 327 329 329 328 327 326 330 336 339 341 341 340 339 338 339 340 341 342 341 342 340 339 338 337 337 339 341 340 340 341 341 341 341 341 339 338 338 338 338 339 339 339 338
317 315 315 317 316 317 318 317 314 308 307 306 308 319 322 320 322 326 329 328 330 332 334 334 334 336 338 338 334 338 342 344 346 345 345 347 346 345 347 348 348 350 350 349 349 348 343 337 334 332 330 329 327 327 328 329 329 328 328 328 329 331 334 337 338 338 338 338 339 340 341 340 340 340 339 337 335 334 336 338 339 340 341 341 341 340 340 339 338 338 338 338 338 338 338 338 337
314 316 316 317 319 319 317 316 316 311 309 309 309 320 327 325 327 329 330 329 328 332 334 335 336 338 342 344 339 342 344 344 346 347 347 346 346 345 347 347 348 350 351 349 349 349 343 337 336 334 332 329 327 328 328 329 329 329 329 330 332 332 333 334 335 337 339 340 340 339 340 339 339 340 339 337 336 337 337 338 337 338 339 339 340 340 339 338 338 338 337 338 338 338 338 337 336
315 316 316 317 320 320 318 314 313 311 314 317 314 320 328 328 330 328 328 328 327 332 334 337 338 335 342 346 343 345 345 344 346 347 349 346 345 346 346 347 346 348 351 349 349 348 342 337 336 334 332 329 328 328 328 329 330 329 329 331 333 334 335 336 337 339 340 340 339 337 337 338 339 339 337 336 337 338 338 336 334 334 334 335 338 338 338 337 337 337 337 338 338 338 337 336 335
316 316 316 316 318 318 317 312 311 312 317 319 317 319 325 329 328 326 329 329 327 329 333 340 338 336 344 345 344 347 348 347 347 348 348 346 345 346 345 346 345 347 350 351 349 347 342 338 337 334 333 329 328 328 328 329 330 330 329 330 332 334 336 337 338 339 339 338 337 336 335 337 338 337 336 336 337 338 336 334 333 331 330 333 336 337 337 337 337 337 338 338 338 337 337 336 335
315 317 318 317 317 317 314 312 313 315 317 319 319 319 323 325 323 323 326 327 327 329 334 340 338 340 343 343 344 346 349 350 349 348 347 346 345 345 345 346 346 344 347 349 350 346 341 339 337 335 333 330 329 328 328 329 330 330 329 329 330 332 334 335 336 336 336 335 335 334 335 336 337 337 337 338 338 338 337 336 335 332 330 330 333 335 337 337 336 337 338 338 337 336 335 335 334
315 318 319 317 316 316 313 312 314 317 319 319 319 319 321 321 321 322 323 325 327 328 334 340 338 341 342 344 347 347 350 350 348 348 346 346 345 345 346 346 345 344 345 349 350 346 342 339 337 335 334 331 329 328 328 329 330 330 330 329 329 329 330 332 333 333 333 333 332 331 333 336 337 338 338 338 338 338 338 337 336 333 330 328 330 334 336 336 336 336 337 337 337 335 334 333 332
316 316 318 317 314 311 310 312 314 317 319 319 318 319 320 320 320 321 321 325 328 328 334 340 338 339 341 345 347 348 350 350 348 348 347 346 345 345 345 344 344 344 344 348 349 347 343 341 339 336 335 332 330 329 328 329 330 330 330 329 329 328 328 329 329 331 332 333 333 332 332 334 335 337 337 338 337 337 338 338 336 333 331 329 330 333 335 335 335 336 337 336 336 334 332 330 330
316 316 316 316 313 309 308 311 314 317 319 318 318 318 320 319 319 320 321 323 326 328 331 338 339 337 340 344 347 349 350 349 348 348 347 346 344 344 345 344 344 343 343 347 347 346 344 342 340 337 336 334 332 330 329 329 329 331 331 330 330 329 329 329 330 330 332 333 334 334 333 334 335 336 337 338 336 336 337 337 336 333 332 330 330 332 333 334 335 336 337 336 335 332 330 330 331
316 318 316 313 311 310 311 312 313 318 318 317 318 317 318 319 318 318 319 322 326 327 329 338 338 337 339 341 347 349 349 349 348 347 346 346 345 345 345 344 344 343 342 344 345 346 346 344 342 340 338 337 335 331 330 329 329 330 331 331 331 331 331 331 333 333 332 333 335 336 336 336 335 336 337 336 335 335 336 336 336 333 332 330 331 332 332 334 335 336 336 335 334 331 331 332 333
315 318 317 313 313 313 313 313 314 317 317 317 318 317 318 317 317 318 319 320 324 326 328 335 336 340 342 342 346 348 348 348 348 346 346 345 345 345 344 345 344 343 342 343 344 344 345 345 344 343 341 339 336 332 330 330 329 330 331 332 332 332 333 333 334 335 335 335 336 337 336 337 337 337 337 336 334 334 335 335 336 334 331 330 329 331 331 333 334 335 336 335 333 332 332 333 332
316 316 317 315 316 315 314 313 315 314 314 318 318 318 318 316 318 317 319 319 321 326 327 334 335 338 341 345 346 346 348 349 348 346 346 345 344 345 344 344 343 343 342 341 343 343 344 345 345 344 342 341 339 335 332 331 330 330 331 332 333 333 334 334 335 335 336 336 337 337 337 338 338 338 338 336 335 334 334 334 335 334 333 331 328 329 330 331 332 334 335 334 333 333 333 332 331
316 316 317 316 315 314 314 314 315 313 314 319 317 317 317 316 318 317 318 319 320 324 327 334 334 334 339 341 343 345 348 348 348 347 346 345 344 344 344 344 343 342 342 342 343 342 342 344 346 344 342 343 341 339 337 334 332 331 331 332 334 335 335 335 335 335 336 337 337 337 337 338 339 339 338 336 334 333 333 333 333 333 333 332 329 329 330 330 331 334 334 334 333 333 332 331 331
316 316 317 315 312 312 314 316 315 313 315 319 317 317 317 317 318 317 319 320 321 325 328 334 333 334 335 334 337 343 348 348 348 347 346 345 344 344 343 343 343 343 342 342 343 343 342 343 345 345 344 344 343 344 342 339 335 333 331 332 334 335 336 336 335 336 338 338 337 336 336 338 339 338 337 337 334 333 333 333 331 332 334 334 332 331 331 331 332 333 333 333 333 332 332 331 331
315 315 316 313 312 311 314 317 315 313 316 318 317 318 317 316 319 319 320 321 322 325 327 332 332 333 333 332 338 345 349 348 348 348 346 345 345 343 343 344 343 343 342 342 342 342 341 341 343 346 345 344 344 345 344 343 340 336 333 332 334 336 336 337 337 338 338 338 338 337 336 339 340 337 337 337 335 334 334 333 331 332 334 335 333 333 333 332 331 332 331 331 332 332 331 331 331
315 315 313 312 313 314 316 317 317 316 317 318 317 317 316 316 318 321 323 321 320 323 326 332 333 333 337 340 343 347 349 349 348 348 347 346 345 344 344 343 343 343 343 343 342 341 340 340 342 344 345 344 344 345 344 344 342 340 338 335 336 337 336 336 338 338 338 338 338 338 338 339 339 337 337 336 335 334 334 334 332 331 333 333 333 333 333 333 331 329 329 329 330 331 330 329 330
314 315 313 313 315 317 317 317 316 316 317 316 317 317 316 317 319 322 324 322 319 319 325 333 334 335 339 343 345 347 349 349 349 347 347 347 345 345 344 343 343 344 343 343 342 341 339 339 341 342 344 344 344 344 343 343 343 341 342 340 339 338 337 338 338 338 339 338 337 338 340 339 338 337 336 336 335 335 333 333 332 330 330 330 331 331 332 333 332 329 327 327 327 328 327 327 329
314 314 313 314 317 317 317 316 315 316 315 316 317 316 316 318 321 323 324 322 320 319 323 332 335 335 338 342 346 349 349 349 348 347 347 346 346 345 344 344 343 343 343 342 342 340 339 339 339 340 341 343 344 345 344 343 342 342 343 341 340 339 339 339 338 339 339 338 338 338 340 338 336 337 336 336 336 335 333 333 332 330 329 328 328 330 331 331 332 331 328 326 326 326 326 327 328
314 313 313 315 317 316 316 316 315 316 315 316 316 316 316 319 320 322 323 323 322 320 322 327 334 337 339 342 345 348 348 348 347 346 347 347 346 345 344 344 342 342 342 341 340 339 339 339 339 339 340 341 343 343 343 343 342 341 341 340 340 340 339 339 338 339 339 340 340 339 339 337 335 335 336 336 336 334 334 334 333 332 331 329 326 330 332 331 331 332 330 328 327 328 328 328 327
313 314 314 315 316 314 315 315 315 315 315 315 315 316 316 317 317 320 324 324 323 323 323 324 330 335 340 341 344 346 346 345 346 345 346 346 345 345 344 343 342 342 341 339 339 339 338 339 339 338 339 340 340 339 341 342 341 341 340 339 340 340 339 339 339 338 338 338 338 337 338 336 334 335 335 336 336 335 335 335 334 333 334 333 329 329 332 331 331 331 331 330 329 330 329 329 328
312 314 314 314 314 314 315 314 314 314 314 315 315 316 316 316 317 320 324 324 325 327 326 328 330 334 339 342 343 345 345 343 344 344 345 345 344 344 343 344 343 341 340 339 339 339 338 338 338 338 338 340 339 337 340 341 341 341 340 339 339 339 339 338 338 338 338 337 337 335 336 336 334 335 335 335 335 335 336 335 334 333 333 334 332 331 331 331 332 330 331 331 330 329 329 330 330
313 313 314 314 314 314 314 315 314 314 315 315 316 316 316 316 318 322 325 325 327 329 331 333 333 335 338 341 343 343 344 344 343 341 342 343 343 343 343 344 341 338 340 340 339 339 338 337 337 337 338 340 340 337 338 339 339 339 339 339 338 338 339 338 338 338 338 338 337 335 336 336 335 336 334 334 334 334 336 335 333 333 333 333 333 333 333 332 331 331 330 331 330 329 329 329 329
312 312 313 314 314 314 314 314 314 314 315 316 316 315 316 317 319 324 325 327 329 327 332 333 332 334 336 339 342 342 343 343 341 342 342 342 341 341 342 343 341 339 340 340 339 338 337 337 337 338 338 339 340 339 338 339 338 337 337 337 337 338 338 338 338 337 337 338 337 336 336 336 336 337 334 333 333 334 335 333 334 335 334 333 334 335 334 332 332 331 330 331 331 329 328 327 328
312 313 313 313 314 314 314 314 314 315 316 316 315 315 317 318 319 324 326 327 328 328 332 332 333 337 338 339 341 342 343 343 342 342 341 340 341 341 340 342 342 340 339 339 339 337 337 336 336 337 338 337 338 338 338 338 338 338 337 336 336 338 338 337 338 337 337 337 337 337 337 336 337 337 335 335 336 335 334 334 335 336 334 335 336 336 333 332 332 331 330 330 330 328 326 326 326
314 314 313 313 314 314 315 315 315 315 316 316 315 315 317 319 319 324 327 327 328 329 331 331 332 335 336 336 341 342 341 341 341 341 339 340 340 340 340 341 341 339 339 339 337 336 336 335 335 335 336 336 335 335 335 336 336 336 337 337 336 336 336 337 337 336 337 336 337 336 336 337 337 337 336 336 337 336 335 336 336 335 335 336 337 337 334 333 332 331 331 330 329 329 327 325 325
314 314 313 314 314 315 315 315 315 314 316 316 316 317 317 318 319 323 325 326 328 331 330 329 329 331 333 336 341 341 341 341 340 340 340 340 341 340 340 340 339 339 339 338 336 336 336 334 333 333 336 337 333 332 332 332 332 332 334 336 336 336 336 337 337 337 337 336 336 336 335 336 336 337 337 336 336 336 336 335 336 335 336 336 336 336 336 334 331 332 331 329 330 330 327 326 325
314 313 313 314 314 314 315 314 314 315 315 316 315 315 316 318 319 321 325 325 327 329 327 329 330 331 332 336 340 340 340 341 339 340 341 341 341 340 340 340 340 338 338 337 336 337 337 335 334 334 336 336 332 331 331 330 329 330 331 331 335 337 337 337 336 336 336 335 336 335 336 336 336 337 337 336 336 335 336 335 335 335 336 336 336 336 336 334 331 332 331 327 329 329 328 326 325
313 313 313 314 313 314 315 315 314 315 315 316 315 312 313 319 318 319 324 324 326 325 325 328 331 333 332 335 338 339 339 339 340 340 342 342 342 341 341 340 340 337 336 337 337 338 337 336 336 335 335 334 333 333 330 329 329 329 330 330 334 337 336 337 337 336 335 335 335 334 335 335 336 336 336 336 336 335 335 335 334 335 336 336 337 336 336 335 332 332 330 328 327 326 326 324 322
314 314 313 313 311 311 315 315 314 316 315 316 316 310 313 318 317 318 321 322 324 325 325 328 330 332 334 334 337 339 338 339 340 340 341 342 341 341 340 340 339 335 335 338 338 338 337 338 337 337 336 335 334 334 331 331 331 330 329 331 333 333 333 334 336 336 335 335 335 335 335 335 335 335 336 336 336 335 334 335 334 335 336 336 336 336 336 336 333 331 330 329 327 325 327 323 320
314 312 310 312 310 312 315 316 315 316 315 316 314 310 314 317 317 318 318 320 322 324 325 327 328 330 332 333 334 337 338 338 338 338 339 340 339 339 339 338 338 336 337 338 338 338 338 339 338 337 336 336 335 333 333 333 332 331 330 331 332 331 329 330 332 333 334 334 334 334 334 334 335 334 336 335 335 334 334 334 333 334 335 335 335 335 336 335 333 331 330 329 329 327 327 326 323
313 312 309 311 310 311 314 316 316 316 315 316 314 312 315 317 317 318 317 318 319 322 325 325 327 330 332 331 331 333 335 336 334 334 338 337 337 338 337 337 337 336 337 338 338 339 338 337 337 336 336 336 334 333 334 334 332 331 330 330 330 329 328 328 328 328 329 330 331 332 332 333 333 333 334 335 334 334 334 334 333 334 334 333 334 335 334 334 333 332 331 330 330 330 329 328 327
311 312 311 312 312 311 312 314 316 316 316 316 315 314 316 317 317 318 318 318 318 320 323 324 326 328 330 330 329 331 334 333 331 336 338 335 336 337 335 336 336 337 337 338 338 338 337 335 336 336 335 335 334 333 333 332 331 330 328 328 327 326 326 326 326 326 326 327 328 329 330 330 331 332 332 333 334 333 333 334 333 333 333 332 333 333 332 334 333 332 332 331 331 331 330 329 329
310 311 311 312 312 312 312 313 316 316 316 315 316 315 316 317 318 318 318 317 318 319 321 324 325 326 329 329 327 329 332 331 331 336 335 333 336 337 335 336 338 339 338 339 339 337 337 335 336 336 334 335 334 333 333 331 330 328 327 326 324 323 324 325 326 326 326 325 326 328 328 328 328 330 330 330 331 331 331 332 332 333 332 331 332 332 332 333 333 332 332 331 330 330 330 331 331
313 313 313 312 311 311 313 316 317 317 316 316 317 316 316 317 318 318 318 318 319 319 320 324 324 325 327 327 326 328 330 330 331 334 333 331 334 335 337 338 340 340 340 340 338 337 338 336 336 335 334 334 334 333 332 329 328 326 325 325 323 324 325 326 325 325 325 325 325 326 326 326 326 327 327 328 327 327 328 329 330 331 330 330 330 330 331 331 332 332 331 331 331 330 330 331 332
316 316 314 313 312 310 314 318 317 318 317 316 317 316 317 317 318 318 318 318 319 319 320 323 323 325 325 324 327 329 331 331 331 332 332 331 332 335 337 339 340 340 340 341 339 338 338 336 336 335 334 334 332 331 329 327 327 325 324 324 323 323 324 324 325 325 325 325 325 324 324 324 325 325 325 326 326 325 325 325 327 329 329 330 330 330 331 331 331 331 331 331 331 330 330 331 333
317 315 312 312 311 312 315 318 317 318 316 315 317 317 317 318 318 318 318 319 319 319 319 321 322 323 322 324 326 329 331 330 329 332 332 331 332 334 336 337 339 338 339 340 339 338 337 335 335 335 334 333 330 329 328 326 325 324 323 323 322 322 323 323 324 324 323 322 322 322 322 323 323 323 324 325 325 324 324 324 325 327 327 328 330 331 331 331 330 330 331 331 331 330 330 332 332
316 315 311 311 312 313 316 320 318 317 316 314 316 316 317 319 318 318 319 319 318 319 319 321 321 321 321 323 326 329 330 329 329 332 332 330 332 333 334 336 337 336 337 338 338 338 337 335 334 335 333 330 329 329 328 326 324 324 322 321 321 322 323 324 323 323 323 321 322 322 323 323 323 323 323 324 324 323 323 322 323 325 326 327 328 330 330 329 329 330 330 330 330 329 331 332 331
317 314 311 310 312 313 313 317 320 319 317 316 317 316 318 319 318 319 320 319 319 319 319 320 321 321 321 322 325 328 329 331 332 334 334 331 331 333 333 335 336 335 335 335 336 337 335 334 334 334 331 328 328 329 327 326 325 325 323 323 323 323 324 324 323 322 322 322 322 322 322 323 324 323 323 323 322 322 322 321 321 323 323 324 325 326 328 328 329 330 329 329 329 329 331 331 331
316 316 313 311 314 314 313 317 320 320 320 319 317 313 315 317 317 318 320 319 319 319 320 322 324 323 322 323 324 325 328 330 331 332 333 332 332 334 333 334 335 335 334 334 334 335 334 333 333 333 330 327 329 328 327 327 325 325 325 324 325 323 322 322 321 322 322 322 321 321 322 323 323 323 323 322 321 321 321 321 321 321 321 322 322 323 324 325 325 327 328 329 328 329 329 329 329
314 317 317 316 316 317 318 318 319 316 315 318 317 312 311 314 316 317 319 319 320 319 320 321 322 322 322 323 324 324 327 328 328 329 331 333 334 334 333 333 334 335 334 333 333 333 333 332 333 333 329 328 329 328 328 326 323 324 324 322 322 321 321 322 322 321 321 321 321 321 322 323 323 323 323 322 321 321 321 321 320 320 320 321 321 322 321 321 321 322 324 326 328 329 329 327 327
312 316 318 318 317 317 318 318 316 313 312 317 319 314 312 312 314 317 319 320 320 319 318 317 318 319 318 320 321 322 325 325 326 327 329 332 335 334 334 333 333 333 333 333 333 333 332 332 334 332 329 328 328 328 328 324 322 323 322 320 320 320 321 322 321 321 321 321 320 321 322 322 323 323 323 322 322 322 321 321 321 321 320 320 321 321 320 321 321 321 322 323 324 325 327 327 326
312 318 319 317 317 317 317 317 315 313 313 316 318 315 312 311 313 318 320 320 320 318 319 318 317 317 318 318 318 319 323 324 324 326 328 331 333 335 335 334 333 333 333 333 333 333 331 330 333 332 328 329 329 329 327 323 323 323 321 321 320 319 321 322 322 322 321 320 320 322 322 322 322 322 322 322 322 321 321 321 320 319 318 317 317 318 318 319 320 320 321 322 322 322 323 325 325
316 320 319 317 318 318 318 317 315 315 314 313 314 315 313 311 312 316 319 318 318 319 319 319 318 318 318 318 319 319 321 324 323 325 327 329 332 334 334 334 333 332 332 333 333 333 331 330 333 331 328 329 329 328 325 323 324 323 322 322 319 319 321 321 320 321 320 320 321 321 321 321 321 321 321 320 319 319 319 318 317 316 316 315 314 314 315 316 318 319 319 320 321 321 321 322 323
318 318 318 317 319 318 318 318 314 315 316 314 314 313 313 312 312 313 317 316 317 318 319 319 319 319 318 320 320 320 320 321 321 322 324 326 329 331 333 334 333 332 332 332 333 333 330 330 332 331 328 328 329 328 325 323 324 323 322 321 319 320 321 319 319 321 320 320 320 320 320 320 320 320 319 317 317 318 317 317 316 315 315 315 315 315 315 316 317 317 318 318 319 319 319 320 321
318 318 316 316 317 318 318 317 314 314 315 314 314 313 313 313 312 312 316 318 318 319 319 319 319 318 319 321 320 319 318 319 319 319 321 323 324 326 330 334 333 333 332 332 333 333 330 330 332 330 327 328 330 328 325 323 324 323 322 321 320 321 321 319 319 321 320 321 320 319 319 319 319 318 317 317 317 317 317 317 316 315 315 315 316 317 316 317 317 317 317 317 317 317 317 318 318
316 316 315 315 315 316 317 315 315 315 314 313 312 313 314 313 312 312 317 319 319 319 319 319 320 319 320 320 319 318 319 319 319 319 322 324 324 323 326 332 334 333 332 333 333 332 330 331 332 330 327 327 329 328 324 324 324 323 323 321 320 321 321 320 321 321 320 321 320 319 319 320 319 317 317 317 318 318 318 317 317 316 316 316 316 316 316 317 317 317 317 317 317 317 317 317 317
315 315 315 314 314 315 316 315 314 315 314 313 313 313 314 312 313 314 317 318 317 318 317 318 319 320 320 319 318 319 319 320 319 320 323 324 325 325 325 330 333 333 332 332 333 332 331 332 331 330 327 327 329 328 324 324 324 323 324 323 321 321 321 320 321 322 321 320 320 319 319 319 319 318 317 317 318 318 319 318 318 318 316 316 315 316 316 317 317 317 317 317 316 317 316 316 316
314 313 314 314 314 316 317 314 313 313 312 313 314 315 314 311 312 316 319 318 318 317 316 318 319 320 320 318 317 318 320 321 320 321 324 325 326 327 328 331 332 332 331 331 332 332 331 332 331 329 328 327 329 328 325 324 325 324 324 323 322 321 321 320 320 321 321 320 320 320 319 319 320 319 318 318 318 318 319 318 319 318 317 316 316 316 316 316 317 316 316 317 317 316 317 316 316
314 314 314 313 313 315 316 313 312 312 311 312 314 314 312 311 315 318 318 317 317 316 316 318 318 318 318 318 318 319 321 322 322 322 325 326 328 328 329 331 330 329 329 330 331 331 331 331 330 328 328 327 328 329 326 324 325 325 323 323 323 321 322 321 319 320 321 320 319 320 320 319 319 319 319 319 319 318 319 319 319 318 317 316 316 316 316 316 316 316 315 316 317 316 316 316 315
314 314 313 312 313 314 313 312 313 313 312 312 313 313 312 314 318 318 316 316 315 316 316 317 317 317 318 319 319 321 321 323 324 324 324 326 328 328 328 328 328 328 328 329 329 330 330 330 329 328 327 327 327 329 327 324 324 325 324 324 323 322 322 321 319 318 320 320 319 320 320 318 318 319 319 319 320 319 319 319 319 319 318 317 316 316 316 316 315 316 316 316 316 315 315 316 316
313 313 312 313 314 313 312 312 313 313 314 312 311 311 312 313 316 316 316 316 315 315 315 316 317 318 318 319 320 320 321 322 323 324 325 326 327 328 328 328 328 327 328 328 328 329 329 329 329 328 327 327 327 328 327 325 324 324 324 324 324 324 322 322 320 318 320 321 320 320 320 319 318 318 319 320 320 318 319 320 319 319 318 317 316 316 316 316 315 316 316 316 316 315 316 316 316
311 311 312 313 313 314 313 312 313 313 314 313 310 311 311 311 313 316 316 316 315 315 314 316 317 318 317 318 319 320 321 322 323 324 324 326 328 328 327 327 326 327 327 327 327 327 328 328 328 328 327 327 328 328 327 326 325 325 324 324 325 325 324 323 322 320 320 322 321 320 320 320 319 319 319 320 321 319 320 320 319 319 319 318 316 315 315 315 315 315 316 316 316 315 315 315 315
312 311 312 313 312 312 312 312 314 314 314 313 311 311 310 310 313 316 316 316 316 315 315 316 316 317 317 317 318 320 320 321 322 322 322 324 326 326 326 326 326 326 327 327 327 327 327 328 327 327 326 327 327 327 326 325 325 325 325 325 326 325 325 324 322 321 322 323 322 321 320 320 320 319 319 321 321 319 320 320 319 319 319 318 317 316 316 315 315 315 315 315 315 314 315 315 315
311 311 312 312 311 311 311 312 312 314 315 315 313 312 312 312 315 317 317 318 317 315 315 316 316 317 317 317 317 318 319 320 320 320 321 322 324 324 324 324 325 325 325 326 326 326 327 327 326 327 326 326 326 325 325 325 325 325 325 325 326 326 325 324 323 322 322 323 323 322 321 320 321 320 320 321 321 319 320 320 319 319 320 319 317 316 316 315 315 315 314 315 314 314 315 315 314
312 312 312 312 312 311 312 312 311 312 313 314 314 314 312 315 317 316 317 319 318 316 315 316 316 316 316 317 318 317 319 319 318 318 320 321 323 324 323 323 323 324 324 324 324 325 325 325 325 325 325 325 325 324 324 324 324 324 324 324 324 325 324 324 323 323 323 323 323 323 322 321 322 321 320 321 321 319 320 320 320 320 320 319 318 316 316 315 315 316 315 315 315 314 314 314 314
313 313 313 312 313 313 313 314 312 311 311 311 314 314 313 316 318 315 316 318 317 315 315 316 315 316 317 317 318 317 318 317 317 317 317 318 321 322 322 322 323 322 323 323 323 323 324 324 324 324 324 324 324 324 324 324 324 324 324 324 323 323 323 322 323 322 323 323 322 323 324 322 322 322 321 321 321 320 320 320 320 320 320 320 318 317 316 315 315 315 315 316 315 314 313 314 314
Wind_Speed
6 7 8 8 9 9 8 6 6 4 6 8 7 10 3 4 2 4 6 3 4 2 1 3 1 4 2 5 5 6 14 10 7 3 3 7 12 13 14 20 22 21 23 23 25 26 25 25 23 23 22 21 21 20 19 17 16 15 13 13 13 14 14 14 14 14 16 15 14 12 12 11 12 14 14 14 15 16 15 13 12 12 11 10 10 9 9 8 8 8 8 8 9 9 9 8 7
6 7 8 9 10 8 5 5 6 5 7 8 8 10 2 6 1 7 7 1 3 5 1 3 2 3 2 6 6 5 11 15 14 9 7 13 15 13 16 20 22 23 23 24 25 24 24 25 24 23 22 21 21 20 19 17 16 15 14 13 14 14 14 14 14 15 15 13 12 11 11 12 13 14 14 13 14 15 14 12 11 11 10 10 9 8 8 8 8 7 7 7 8 8 8 8 7
7 7 9 8 9 8 4 4 7 7 8 8 8 6 3 3 4 3 0 4 5 4 2 3 2 2 1 5 4 1 6 13 13 10 9 13 14 14 17 19 21 22 22 24 24 23 23 25 24 23 22 21 21 20 19 18 17 15 14 13 14 14 14 14 14 14 13 12 12 12 13 14 15 15 14 14 13 13 12 11 11 11 10 9 8 8 7 7 7 6 6 7 7 8 8 7 7
7 8 10 8 6 7 5 6 7 8 8 8 6 2 3 3 3 3 3 3 3 0 3 3 3 1 3 4 1 4 8 10 10 10 8 11 14 17 19 18 20 21 20 22 23 22 23 25 25 23 23 22 21 20 19 18 17 16 15 14 14 13 14 14 14 13 13 13 13 14 15 16 16 15 14 13 13 12 12 12 11 10 10 9 8 8 7 7 6 5 6 6 7 8 7 7 7
8 9 10 9 5 3 4 6 6 8 8 8 6 5 6 2 4 4 3 2 1 2 3 4 3 3 1 6 5 4 6 7 10 10 9 12 17 20 20 18 19 21 19 19 23 22 24 27 25 24 23 22 21 20 20 19 17 17 15 15 14 14 14 13 13 13 13 13 14 15 15 16 15 13 13 13 13 12 12 11 10 9 9 9 9 8 8 8 6 5 6 6 7 7 7 6 7
9 8 9 10 6 4 5 7 7 9 9 10 10 3 6 2 3 2 2 1 2 2 4 4 3 5 4 8 8 5 5 4 10 9 12 16 19 20 19 19 18 21 20 18 20 21 25 26 25 24 23 22 21 20 20 19 18 17 16 15 15 14 14 14 14 14 14 14 14 14 14 14 13 12 12 12 12 11 10 10 9 9 9 9 10 9 9 9 7 6 7 7 8 8 7 7 6
9 6 6 8 5 4 6 8 8 9 6 6 11 4 5 3 3 2 2 4 5 4 5 3 3 6 5 4 7 8 8 5 9 10 14 17 19 19 17 18 18 20 19 18 19 21 26 25 25 24 23 22 21 20 19 19 18 17 17 16 15 15 15 15 15 14 14 14 14 13 13 13 12 12 12 12 11 10 9 9 8 8 7 9 10 10 10 9 7 8 9 8 8 8 7 6 6
10 7 4 6 6 5 7 9 9 9 3 2 6 5 5 3 3 5 3 3 4 5 6 4 7 5 3 2 4 8 8 9 11 13 17 18 18 18 16 17 18 18 18 19 19 22 25 25 25 23 23 22 21 20 19 19 18 18 17 16 15 15 15 15 15 15 14 14 14 13 13 13 12 12 12 11 10 9 9 8 7 6 7 8 8 10 11 9 8 10 10 7 7 7 6 5 5
10 7 4 6 7 6 8 9 9 11 7 1 5 3 1 3 4 5 6 4 3 4 6 5 8 5 4 2 5 6 7 10 14 16 17 18 18 16 16 16 17 17 18 19 20 22 24 24 24 23 22 22 21 21 20 20 19 19 18 17 16 15 15 15 15 14 14 14 13 13 13 12 12 12 11 10 9 9 8 8 7 6 7 7 8 10 11 10 9 10 8 7 6 6 6 5 4
7 6 5 5 6 8 9 8 9 11 8 4 4 3 2 3 4 5 7 6 5 5 5 4 6 7 8 7 6 4 7 13 15 17 17 18 17 16 15 16 16 17 18 19 21 22 23 24 23 23 22 21 21 20 20 20 19 19 19 18 17 16 16 15 15 14 14 14 13 13 12 12 12 12 11 10 10 9 9 8 7 6 7 7 8 9 10 10 10 9 8 7 7 6 6 6 6
6 6 5 6 7 8 8 8 10 9 4 3 5 4 2 2 4 6 7 7 4 6 7 5 7 8 11 9 5 4 10 14 16 17 17 16 16 16 16 16 16 16 18 18 20 21 22 23 22 23 22 21 21 20 20 19 19 19 18 18 17 17 16 15 15 14 14 13 13 12 12 11 11 11 11 11 10 10 9 8 7 6 6 7 8 8 9 10 9 9 7 7 7 7 7 7 7
6 6 6 7 7 7 9 10 9 5 2 4 8 5 3 1 4 6 7 8 4 7 8 7 5 5 8 8 4 6 12 13 16 17 17 16 16 16 15 16 15 15 17 18 18 19 21 22 22 22 22 22 21 20 20 19 19 18 18 18 17 17 16 15 15 14 14 13 13 12 11 11 11 11 10 11 10 9 8 7 6 6 5 6 8 8 8 9 9 8 7 7 6 8 8 7 6
7 6 6 7 7 8 10 9 8 5 3 8 4 7 3 2 6 6 7 8 6 7 8 8 4 4 5 6 5 6 10 12 15 16 16 17 15 15 15 15 15 15 16 16 16 18 21 22 21 21 21 21 21 20 20 19 19 18 18 17 17 16 15 15 15 14 14 13 12 11 10 10 10 10 10 9 9 8 8 7 7 6 5 5 7 8 8 8 8 8 7 6 5 8 8 6 4
6 6 6 7 7 10 9 8 8 7 8 4 5 8 2 3 5 6 7 10 9 8 7 7 5 10 7 5 5 5 8 12 15 15 16 17 16 15 15 15 15 15 15 15 15 16 19 21 20 20 21 21 21 21 19 19 18 18 18 17 16 15 14 14 14 13 13 12 11 10 9 9 9 9 9 9 8 8 7 7 7 6 6 5 6 7 8 8 8 8 7 6 6 9 8 5 3
6 5 5 7 7 9 7 8 9 9 5 7 8 3 1 4 4 7 9 10 10 5 6 7 6 6 9 8 5 8 12 16 15 14 16 16 16 15 15 15 14 15 14 14 15 15 17 20 19 18 20 20 18 18 18 18 17 18 18 18 16 15 14 13 13 13 12 11 10 9 9 9 9 8 8 9 8 7 7 7 7 7 7 6 6 7 9 8 8 7 6 6 8 10 7 5 3
5 5 5 7 8 9 6 7 8 9 4 11 6 1 0 4 3 7 8 9 8 2 6 7 5 3 9 12 9 15 18 18 17 16 17 16 16 16 15 14 13 13 13 13 13 13 15 18 18 16 17 18 16 15 15 16 17 17 18 18 17 16 15 13 13 12 11 10 10 9 9 9 9 8 8 8 8 8 7 7 7 8 8 7 6 6 7 8 8 7 6 7 9 9 6 5 4
5 5 7 7 8 10 6 7 6 5 2 8 5 3 3 5 2 5 5 8 10 4 7 6 5 1 2 9 16 22 21 19 19 18 18 17 16 15 14 14 13 12 12 12 12 12 13 17 18 15 15 16 15 14 14 14 15 17 17 18 17 16 15 14 14 12 11 10 9 10 9 8 7 8 8 8 10 9 8 8 8 9 8 8 7 7 7 8 8 7 7 8 9 8 6 5 4
5 6 7 7 8 9 5 6 3 5 4 2 5 5 5 6 3 3 4 10 13 8 9 6 6 4 10 17 21 22 22 21 19 19 19 16 15 14 14 13 13 12 12 11 10 10 11 15 18 16 14 15 14 13 13 12 14 16 15 15 15 13 14 13 13 11 10 10 10 10 8 8 8 8 10 11 11 10 10 10 10 10 9 9 8 8 8 8 8 8 9 9 9 8 6 5 5
7 7 7 8 9 5 2 4 6 6 7 6 4 4 5 5 4 2 6 10 13 12 11 9 7 8 12 17 20 21 22 20 19 18 18 16 14 15 14 13 13 12 12 11 10 9 10 12 16 16 13 14 13 10 11 10 13 15 11 12 13 12 12 12 11 9 10 11 11 10 8 8 9 9 11 11 10 12 12 11 10 10 10 9 9 8 8 8 8 8 10 10 9 9 8 7 7
7 8 7 8 9 6 2 3 6 6 7 7 5 5 6 4 3 4 8 10 12 14 13 11 10 9 10 15 18 20 21 20 19 18 17 17 16 15 14 13 13 13 12 11 10 9 9 9 12 15 14 15 13 10 10 9 12 14 11 12 13 12 12 12 11 11 11 10 9 10 8 8 8 9 11 9 11 14 13 12 12 11 10 10 9 8 8 8 7 8 10 10 10 10 9 9 8
7 8 9 8 4 5 3 3 5 5 5 7 6 6 7 2 3 6 8 10 10 11 13 13 15 16 13 14 16 18 19 18 18 17 16 16 16 15 14 14 13 13 12 11 10 9 9 8 8 11 15 17 16 13 10 10 11 12 12 11 12 12 13 12 11 13 11 7 6 8 6 6 7 8 10 10 12 13 13 13 13 11 12 12 10 9 9 8 7 9 10 10 11 10 10 10 8
7 7 10 12 6 5 5 3 3 3 5 7 7 7 6 4 6 7 8 10 6 6 12 14 17 20 16 13 16 19 19 17 15 14 15 15 15 14 13 14 12 12 11 10 10 9 9 8 8 8 11 14 14 13 11 11 12 11 12 11 11 12 12 12 12 12 10 7 6 8 7 6 7 7 8 10 12 13 12 12 12 13 13 12 11 10 9 8 7 9 10 10 10 9 9 8 7
7 7 10 12 10 8 6 4 4 3 7 8 7 6 6 7 9 5 8 9 1 2 4 7 14 20 18 13 14 18 19 17 15 14 15 15 14 14 14 13 12 12 11 10 10 9 9 8 9 8 7 8 10 11 11 11 11 11 12 12 12 12 12 13 12 9 7 8 7 10 12 11 10 8 8 11 12 12 12 12 12 12 12 9 11 11 9 9 9 9 9 8 9 8 9 8 7
8 9 9 7 8 9 7 7 6 5 8 8 6 7 6 9 6 2 8 5 4 0 3 11 14 15 15 14 12 14 17 17 16 16 15 14 14 14 13 13 13 12 10 11 10 10 9 8 8 7 6 6 6 9 9 8 8 8 8 8 9 12 12 10 10 8 6 7 8 10 11 12 13 11 10 12 13 13 12 13 10 9 10 8 10 10 8 9 9 8 8 8 8 8 9 10 9
11 12 9 6 7 8 8 8 7 7 8 6 6 8 8 7 4 3 7 3 3 4 7 11 11 13 13 13 14 14 14 15 16 16 15 14 14 14 13 13 13 11 11 11 10 10 9 8 7 6 6 5 4 5 6 6 7 8 8 9 9 10 10 8 9 8 7 8 9 10 10 12 13 11 12 12 12 13 12 11 9 8 8 8 9 9 7 7 8 8 7 7 7 7 8 9 10
9 12 10 7 8 8 9 8 8 8 7 6 7 9 7 4 3 5 5 5 3 6 11 10 8 13 13 12 14 15 14 14 15 15 15 15 14 14 13 12 12 11 12 12 10 9 8 8 7 6 5 4 4 4 4 4 5 6 8 9 8 7 8 7 7 7 7 8 8 9 10 11 11 9 10 9 7 9 8 7 8 7 7 7 7 7 9 8 7 8 7 8 7 7 8 8 9
1 8 9 8 10 8 8 7 8 9 7 7 8 9 5 5 7 5 7 6 6 10 13 11 9 10 11 12 14 15 15 15 16 16 15 15 15 14 14 12 12 12 12 12 10 9 8 8 7 6 6 4 3 3 3 3 3 4 4 4 4 5 6 5 4 5 6 6 7 9 9 9 9 8 7 6 6 5 6 6 7 7 7 7 6 6 9 9 8 8 8 8 6 7 9 8 8
2 7 8 10 12 10 9 8 9 9 8 9 10 7 5 7 7 3 8 8 7 11 12 13 14 11 12 15 15 14 14 16 17 16 14 14 14 14 14 13 13 12 12 11 10 9 8 7 7 6 6 5 2 2 3 1 2 2 2 2 3 3 4 4 4 5 5 6 7 9 10 9 7 6 6 7 7 6 7 7 7 7 8 7 6 7 9 10 9 8 7 8 5 4 8 8 7
6 8 9 11 12 11 11 10 10 10 8 9 10 7 7 10 6 6 8 8 7 10 10 10 12 13 13 13 14 12 13 16 17 15 14 14 13 14 14 13 13 13 12 11 10 11 9 7 8 7 6 5 3 2 2 1 1 2 2 2 2 3 3 3 4 5 6 6 5 6 8 8 6 5 7 8 8 8 8 9 9 8 8 7 8 10 10 10 11 9 8 8 6 4 8 11 10
8 9 9 8 9 9 10 8 9 10 6 8 10 8 8 10 8 8 7 8 9 11 12 11 9 10 11 10 11 13 13 15 15 15 15 14 14 15 15 14 14 13 13 12 11 12 10 8 8 7 6 6 5 3 1 1 1 1 1 1 1 2 2 2 3 4 5 6 6 6 7 6 5 5 6 7 8 9 8 10 10 8 8 8 9 10 10 10 11 11 9 8 8 7 9 14 14
8 9 8 7 8 7 11 8 9 11 6 8 11 7 6 9 11 7 6 7 9 10 13 14 11 7 8 8 8 11 13 13 15 16 16 15 15 16 15 16 15 13 14 14 13 13 11 10 8 7 7 6 5 4 2 1 1 0 0 0 1 0 1 2 2 3 3 4 6 5 6 6 5 5 5 6 7 8 9 10 9 8 7 7 7 9 8 9 11 12 12 9 8 9 10 12 14
7 8 6 7 7 6 10 9 10 11 8 11 13 7 6 10 11 8 6 7 9 9 10 12 13 9 7 6 6 8 11 12 15 17 17 16 16 17 17 17 16 13 15 15 14 13 11 10 9 8 8 7 6 5 3 2 2 2 2 2 1 1 1 1 1 2 2 2 3 4 5 4 4 4 5 7 7 8 10 10 9 8 7 6 7 7 6 9 12 13 13 11 9 11 12 11 12
7 7 6 6 6 7 7 8 9 8 6 12 13 9 5 9 10 8 7 7 8 8 9 9 13 13 9 7 7 8 10 12 14 16 17 17 17 17 18 18 16 14 15 15 15 14 12 11 9 9 9 7 6 5 4 3 3 3 3 3 1 2 1 1 1 2 2 2 2 3 3 2 2 3 4 5 6 8 10 9 9 9 9 9 8 6 7 10 13 13 13 13 11 11 12 11 11
6 6 5 5 6 4 5 8 9 8 7 11 13 11 5 8 9 7 8 9 8 8 8 9 10 12 13 10 10 10 10 11 13 16 17 17 17 18 18 18 16 14 15 15 15 14 12 11 10 10 9 8 7 6 5 4 4 4 4 3 2 2 1 1 1 1 2 2 1 2 2 1 1 2 3 3 4 7 8 7 7 8 8 8 7 7 9 10 11 12 13 14 12 12 14 12 11
5 6 4 4 6 7 3 8 8 9 10 13 11 10 9 7 7 6 8 8 8 8 7 7 8 9 12 12 11 10 9 10 12 17 19 17 17 17 17 18 16 14 15 15 15 14 12 11 11 10 10 8 8 7 6 6 5 5 4 3 2 2 2 2 2 2 3 2 2 1 1 1 1 2 2 3 4 6 6 6 6 6 7 6 6 8 8 8 9 12 13 13 12 14 17 14 9
6 3 4 5 6 7 4 9 5 5 7 11 9 8 13 10 7 7 8 6 6 8 7 6 7 9 10 11 13 12 11 11 12 17 20 18 17 17 16 17 16 14 15 15 15 14 13 12 12 11 10 10 9 8 8 6 6 5 4 4 3 3 4 4 3 3 3 3 3 2 1 0 1 2 2 3 3 5 5 5 4 4 6 5 5 7 8 7 9 11 12 12 11 12 16 14 7
8 5 5 6 5 8 7 10 7 3 5 9 10 9 11 9 6 6 5 6 8 9 9 8 8 9 9 11 12 15 13 10 11 16 20 18 17 17 16 16 16 15 15 16 15 14 14 13 13 12 12 11 10 9 8 7 6 6 5 4 4 4 4 5 4 4 4 4 4 3 2 1 2 3 3 3 2 3 4 5 4 4 4 3 5 5 6 7 8 9 9 10 12 12 13 14 7
7 7 7 7 7 6 2 6 6 3 5 9 10 8 9 10 8 6 5 8 10 10 11 11 10 10 9 11 12 13 12 9 11 14 17 19 18 17 16 15 16 17 16 16 16 15 14 13 13 13 12 12 10 9 8 6 5 5 5 5 5 6 5 5 5 5 5 4 4 4 3 2 2 2 2 2 2 2 3 4 3 4 3 1 1 2 4 5 5 7 7 8 12 13 13 14 10
7 7 8 7 7 5 3 5 3 3 4 9 9 8 8 11 11 8 8 9 9 10 11 11 12 11 10 10 9 10 11 12 14 14 16 18 19 19 17 15 16 17 16 16 16 15 15 14 14 13 13 12 11 9 8 7 5 4 5 6 5 6 6 5 6 5 5 5 4 3 3 2 1 1 1 1 1 1 2 2 3 3 4 4 4 3 2 1 1 3 6 7 10 12 13 12 12
8 8 8 7 7 7 2 5 4 4 4 9 9 7 6 9 10 9 9 9 8 9 10 10 11 11 10 10 8 9 12 12 12 12 14 17 19 20 18 16 16 16 17 17 17 16 16 15 14 14 14 13 12 10 8 7 7 5 6 7 6 7 8 7 7 6 5 5 4 3 3 2 2 2 1 1 2 2 2 2 3 3 4 4 4 3 4 4 3 2 1 4 6 8 9 8 9
9 9 9 8 6 7 6 2 3 5 6 8 9 7 6 10 13 11 10 10 8 7 9 10 9 9 9 8 7 8 10 11 11 11 12 15 17 19 19 18 17 17 17 18 18 18 16 16 16 15 14 14 13 12 10 9 9 8 8 9 8 8 9 7 7 7 6 5 4 4 3 3 3 3 3 3 3 2 2 2 2 3 3 3 4 3 3 4 3 3 3 2 1 2 4 3 4
8 9 9 10 8 6 7 4 5 6 7 8 8 8 7 10 13 11 8 8 9 8 10 12 11 11 9 8 7 7 7 8 10 11 12 14 16 18 20 20 19 18 18 18 19 18 17 17 17 16 15 14 14 14 12 11 10 10 10 10 9 9 8 8 7 7 6 5 5 4 4 3 3 3 4 4 4 3 3 3 3 3 3 3 4 4 3 4 4 4 3 3 3 1 1 1 3
7 4 7 9 9 8 9 8 7 7 6 5 6 7 7 6 7 8 7 9 10 9 10 11 11 11 10 10 10 9 8 7 9 12 13 14 15 16 18 20 21 20 18 18 19 19 18 17 17 17 16 15 15 16 14 12 11 11 10 10 9 9 8 8 7 7 6 6 5 5 4 4 3 3 4 4 4 3 3 3 3 4 4 3 4 4 4 4 4 4 4 3 3 2 2 2 4
4 2 4 8 10 10 9 10 8 8 7 4 8 9 8 6 5 5 7 8 10 10 9 10 10 10 10 9 9 9 8 7 9 11 12 12 13 15 17 19 20 20 20 19 19 20 20 19 18 18 16 16 16 17 16 13 12 12 11 10 9 9 8 9 8 8 7 7 6 5 5 4 4 4 3 4 3 4 4 4 4 4 4 4 4 5 6 5 5 4 4 4 4 4 3 2 2
2 3 5 7 8 9 8 9 8 7 8 6 9 9 7 8 6 4 7 9 10 10 10 9 9 9 8 7 5 4 3 4 5 7 8 9 12 15 17 18 19 20 21 20 19 20 21 20 19 18 17 17 18 18 18 15 13 13 12 11 10 9 9 10 9 8 8 7 7 6 5 5 4 4 3 4 4 5 5 4 4 4 5 5 5 6 6 6 6 5 5 5 4 4 4 4 3
3 3 7 8 8 8 8 8 7 7 7 8 9 8 6 7 5 5 7 9 10 8 8 7 8 7 5 4 3 3 2 2 3 4 4 6 9 12 15 17 19 20 21 21 19 20 21 21 20 20 18 17 19 19 19 17 14 14 13 12 12 11 11 11 10 9 8 8 7 6 5 5 5 4 4 5 5 5 5 5 4 4 5 5 6 6 6 6 6 6 6 6 5 5 4 4 4
5 6 8 8 7 7 7 7 7 7 8 10 11 10 8 6 6 5 4 3 5 4 7 6 6 6 4 2 2 3 2 1 2 2 2 3 6 9 12 16 18 20 21 21 21 21 22 22 21 21 19 18 19 20 20 18 16 14 13 13 13 12 12 12 11 10 9 8 8 7 6 6 5 5 5 5 5 5 5 4 4 4 4 4 5 5 5 5 5 5 5 5 6 5 5 4 4
7 7 8 7 6 7 6 6 7 7 8 9 9 9 8 7 6 3 4 4 2 2 5 6 5 3 2 1 2 1 1 2 2 2 1 1 2 7 11 14 17 19 20 20 20 21 22 22 22 23 21 19 19 20 20 19 17 15 14 14 14 13 13 13 12 11 10 9 9 8 7 7 6 6 6 5 5 5 4 4 3 3 4 4 4 4 4 4 4 5 5 5 6 6 5 5 5
8 8 7 6 6 6 6 6 6 7 7 5 4 5 6 7 6 2 5 6 4 1 1 2 3 0 2 1 1 2 3 3 3 3 3 3 1 4 9 12 15 17 19 19 19 20 21 21 23 23 22 20 19 20 21 19 18 16 15 14 14 14 13 13 12 12 11 10 9 8 8 7 7 7 7 6 6 5 4 4 3 3 3 3 3 3 3 3 3 4 5 5 6 6 6 6 6
8 8 6 6 6 6 7 7 6 7 6 2 1 1 5 7 4 3 6 5 5 4 2 3 3 2 1 1 2 3 4 5 5 5 5 4 3 0 4 8 12 15 17 17 17 19 19 20 22 23 22 21 19 20 20 20 18 17 15 14 14 14 14 13 12 12 12 10 10 9 8 8 8 8 8 7 7 7 5 4 3 3 3 3 2 2 2 2 2 3 4 5 5 5 5 6 6
7 7 7 7 6 6 7 6 6 6 4 3 3 1 5 5 1 4 7 6 5 5 6 6 4 3 2 2 4 5 6 7 6 6 7 6 5 2 2 5 9 12 14 16 16 17 17 18 20 21 21 21 19 18 19 19 18 16 16 15 14 14 13 13 12 12 12 11 10 10 9 8 7 8 8 8 9 8 6 6 5 4 4 4 3 2 2 2 1 2 3 4 4 4 4 5 5
6 7 8 7 6 6 6 6 6 4 5 5 5 4 4 2 4 4 6 7 7 6 7 7 6 5 4 5 5 6 6 7 7 7 6 6 6 4 1 3 6 8 10 13 15 15 15 15 18 20 20 19 18 17 18 18 17 16 16 15 15 14 13 13 13 12 12 12 11 11 10 9 8 8 9 9 10 9 8 7 7 6 6 5 4 3 2 2 2 2 3 3 3 3 3 3 3
3 5 7 6 6 6 7 7 5 3 5 7 6 7 6 3 6 8 7 7 7 7 8 8 7 7 6 6 6 7 7 8 8 8 7 7 6 4 3 3 4 6 8 10 12 13 12 12 14 17 17 17 17 16 16 17 17 16 16 16 15 14 14 13 13 12 12 12 12 11 11 11 10 9 9 11 11 10 10 9 8 8 7 6 6 5 4 3 3 3 3 3 3 3 3 2 2
6 5 3 5 6 6 5 6 5 5 7 7 6 9 8 6 4 7 9 8 8 8 8 9 8 7 8 7 8 8 8 9 9 9 9 8 7 6 5 4 4 5 7 8 9 10 10 11 12 15 15 15 15 14 14 14 15 15 15 15 15 15 14 13 12 12 12 12 12 12 11 12 12 11 11 12 12 12 11 11 10 9 9 8 7 6 5 5 4 4 4 4 4 4 3 3 2
10 8 5 4 6 6 5 5 6 7 8 6 7 9 7 6 4 7 9 9 9 9 8 9 8 8 8 8 9 10 9 9 9 9 9 8 8 8 7 6 6 7 7 8 8 8 8 8 9 11 13 13 12 12 12 12 13 13 12 13 14 14 14 14 13 13 12 12 13 12 12 12 12 13 13 14 14 14 13 13 12 11 10 10 9 8 7 7 6 5 5 5 5 4 4 4 3
10 9 8 6 6 6 5 5 5 7 8 7 8 8 6 5 2 6 8 9 10 9 8 8 8 8 8 7 8 9 8 8 9 9 9 9 10 10 9 8 7 8 8 9 8 8 9 9 8 8 9 9 10 9 9 9 9 10 10 10 12 13 14 14 13 13 13 13 13 13 13 12 13 13 14 15 16 15 15 15 14 13 12 12 11 10 10 9 8 7 6 6 6 5 5 4 4
7 7 7 7 6 6 6 6 6 7 8 7 7 8 5 1 2 2 4 7 9 8 7 7 8 9 8 8 9 8 9 8 8 9 9 10 11 11 10 9 8 9 9 9 8 8 9 10 8 7 7 7 7 7 7 7 7 7 8 9 11 12 13 13 13 13 14 14 13 13 13 13 13 13 14 15 16 16 16 16 16 15 15 14 14 13 12 11 10 9 8 7 7 7 6 6 6
6 6 5 5 6 6 7 8 7 7 8 7 7 8 4 3 2 2 4 4 8 8 8 8 8 9 9 9 9 8 9 8 8 9 9 9 11 12 12 11 10 10 10 10 9 8 9 11 10 8 7 6 5 5 7 7 7 7 8 9 10 11 12 12 13 14 14 14 14 13 12 13 14 14 15 16 16 17 17 17 17 17 16 16 16 15 14 13 12 11 10 9 8 8 8 7 7
Wind_Direction
239 255 261 259 253 259 246 231 250 209 231 254 249 262 222 174 279 295 254 235 255 114 2 303 318 288 339 308 267 74 38 26 21 47 138 113 132 134 129 132 133 137 133 133 141 144 147 149 147 146 144 142 141 139 137 134 133 136 141 144 148 149 153 155 155 155 155 157 157 154 146 143 150 150 148 151 158 162 161 162 166 165 161 155 151 144 131 128 116 108 108 107 108 107 108 105 99
248 249 246 249 243 248 243 209 254 241 224 244 237 249 188 119 205 242 247 302 1 46 348 266 237 271 16 313 300 67 61 55 59 74 99 123 132 128 134 136 135 137 133 134 139 140 146 150 149 148 147 145 143 140 138 135 133 137 141 143 146 148 150 151 152 153 154 154 152 150 144 144 151 154 154 153 156 162 162 159 162 159 158 153 146 137 132 129 117 113 115 111 113 113 113 107 99
254 250 231 229 231 238 261 223 245 259 239 248 241 223 144 168 243 226 267 24 31 37 239 241 228 224 219 249 264 132 90 71 76 89 107 131 134 134 138 136 134 134 132 135 138 139 145 151 151 150 149 146 144 143 140 136 135 136 141 143 146 149 149 150 153 154 154 152 149 147 143 144 146 150 151 148 148 151 154 156 158 157 156 150 143 134 132 131 122 126 124 119 119 118 116 109 105
250 251 236 233 225 222 245 237 237 258 255 260 254 118 88 249 305 27 57 33 37 310 218 198 192 178 289 266 125 99 89 83 86 96 122 134 135 138 135 133 132 130 131 136 139 140 147 153 152 152 150 148 146 145 142 137 136 136 140 145 147 149 148 150 153 154 154 150 149 148 146 144 143 144 144 143 145 148 150 154 156 155 152 148 146 142 146 143 134 140 128 126 125 121 119 114 116
244 245 238 246 246 237 245 245 241 249 254 265 264 73 52 325 9 28 85 67 213 242 225 202 184 137 341 13 38 76 84 102 94 92 120 124 134 138 132 135 132 129 131 136 139 140 149 153 152 154 152 150 150 148 144 138 136 136 140 145 148 150 148 150 151 152 151 149 149 150 148 145 143 144 147 148 148 151 153 155 154 154 154 153 151 151 160 152 145 152 138 136 133 124 121 121 126
239 233 224 242 269 299 267 248 243 245 249 257 265 44 53 7 22 31 115 206 210 235 240 216 209 175 147 51 50 54 43 110 111 106 125 128 136 137 136 138 134 131 132 136 138 141 150 153 154 155 154 153 152 151 147 140 138 138 140 144 148 151 151 151 151 151 150 151 150 150 150 148 147 148 151 151 151 153 155 159 159 160 162 160 157 160 162 154 155 160 150 141 133 128 126 131 131
238 230 206 227 252 258 250 250 249 253 245 245 267 323 48 54 16 300 205 208 195 200 226 227 217 177 146 110 96 69 33 69 122 133 135 134 136 139 142 138 135 132 132 135 135 142 150 153 155 155 155 155 154 155 150 145 142 141 142 145 148 150 152 152 151 153 153 154 152 153 154 153 153 152 154 153 155 158 160 163 161 162 163 163 164 165 160 157 163 162 160 144 132 135 135 140 135
242 242 212 230 240 219 237 251 252 256 231 102 283 312 26 25 343 294 265 227 199 190 203 211 218 177 124 201 115 84 59 72 113 131 136 137 139 142 141 136 135 132 132 133 133 143 150 153 156 156 156 157 157 157 155 151 147 145 146 148 150 151 152 153 153 155 156 156 155 157 157 156 156 155 157 157 160 164 167 168 164 162 156 159 163 161 159 162 169 166 166 153 140 147 147 149 138
233 234 227 242 248 235 238 247 249 252 249 276 271 263 351 296 298 281 271 252 192 203 211 199 217 184 122 101 79 86 87 95 116 129 137 138 141 141 137 135 133 131 131 131 135 143 148 153 156 157 158 159 160 160 160 157 154 151 151 152 154 156 156 157 158 161 161 162 162 161 160 159 159 158 158 160 163 167 175 176 171 165 152 152 154 157 161 166 175 175 176 163 148 154 158 162 141
222 223 241 248 250 253 244 246 248 245 253 276 259 223 182 242 270 268 267 257 194 198 212 204 221 175 136 117 101 114 119 119 125 134 140 141 143 139 133 132 131 131 129 130 137 143 148 152 154 158 160 162 162 163 164 162 161 156 155 157 158 161 162 164 166 166 166 166 167 166 167 166 165 161 160 162 164 166 173 177 174 163 149 148 149 153 162 170 180 182 178 160 149 155 163 159 134
225 212 244 259 246 251 248 250 247 234 219 255 249 223 197 217 270 263 259 264 208 190 200 209 223 168 134 120 105 118 129 133 135 140 142 143 140 132 129 129 131 131 129 131 137 144 149 151 154 158 161 164 166 167 167 168 166 162 160 161 163 165 166 169 170 171 172 171 171 173 174 173 169 164 164 165 164 163 164 171 172 164 151 147 150 150 162 173 180 178 164 156 162 161 156 149 130
241 216 222 247 248 252 254 255 259 261 106 245 236 180 157 219 258 257 252 252 203 202 205 189 211 176 142 128 117 134 139 141 139 143 145 141 131 128 132 130 131 129 129 131 136 145 147 151 155 158 164 167 169 170 171 173 171 167 166 165 167 169 171 172 172 172 174 175 175 176 176 176 173 169 168 168 165 162 160 166 172 173 164 151 155 156 163 173 182 182 167 162 172 166 156 150 135
243 243 234 243 255 259 261 267 274 285 272 256 225 119 110 258 260 264 268 263 224 207 202 193 179 113 118 113 119 149 141 141 140 145 143 134 129 130 132 129 130 129 130 133 136 145 148 152 155 159 166 169 172 174 175 178 175 173 172 171 170 172 176 176 174 173 175 177 176 174 177 176 175 174 172 168 165 164 165 168 174 178 177 165 165 170 170 173 185 190 182 174 174 168 162 157 147
240 254 264 260 258 260 267 274 271 266 259 238 105 97 119 267 280 280 277 270 249 210 190 206 162 111 116 118 128 161 147 145 144 142 137 132 134 132 131 131 133 133 133 135 138 144 148 152 153 160 169 171 174 174 177 180 180 179 178 176 172 176 180 180 177 176 178 178 174 172 173 175 174 177 176 170 167 170 172 171 175 181 189 190 180 182 181 179 185 187 185 187 180 168 164 170 174
251 260 269 264 263 259 250 254 264 271 269 98 99 104 173 261 273 269 260 256 257 212 170 189 192 150 157 170 168 167 158 152 146 139 135 133 134 133 133 133 135 135 135 137 140 143 145 149 152 160 170 173 173 174 178 180 184 184 183 180 176 179 182 183 181 180 182 178 175 170 170 173 170 177 179 174 173 178 181 177 179 184 194 198 188 185 188 189 189 189 193 194 181 170 169 186 199
248 267 261 250 258 256 245 245 250 264 257 102 116 168 255 271 245 253 258 261 273 158 167 185 197 227 171 178 166 154 157 152 147 142 137 136 135 135 136 135 135 135 136 138 142 145 144 145 148 155 168 175 173 174 178 179 185 187 187 185 183 185 181 181 183 181 182 177 175 172 171 165 160 174 177 176 180 179 184 186 186 188 193 194 189 184 189 195 194 193 196 193 183 179 186 199 211
233 253 253 244 250 250 250 238 231 279 260 112 99 43 339 292 262 248 261 264 265 191 196 203 169 235 130 139 134 143 152 147 146 146 142 141 140 141 141 139 138 136 139 141 144 150 145 141 143 154 165 170 172 173 175 176 185 190 190 190 191 192 186 184 182 180 179 178 180 178 170 154 155 175 171 181 187 177 182 192 193 193 190 189 191 190 192 199 201 196 194 194 188 191 204 217 234
227 229 240 243 246 247 254 254 289 347 288 87 53 17 332 304 308 261 241 239 241 217 200 181 143 106 71 99 121 140 146 144 149 150 148 148 147 147 146 145 144 144 145 144 149 153 147 142 143 153 162 164 167 170 171 171 182 190 191 193 197 197 197 195 184 181 179 180 186 179 167 161 172 181 180 192 192 181 187 197 198 196 192 190 192 195 201 206 207 201 199 203 200 207 218 227 247
229 234 237 241 251 265 341 310 327 330 300 337 1 328 325 306 313 293 254 235 221 218 194 155 125 99 94 116 134 143 143 144 152 153 151 152 153 151 149 149 149 151 150 147 152 153 147 147 146 147 155 158 159 166 166 164 180 188 190 192 198 201 205 202 190 189 192 197 193 176 169 178 183 187 190 195 196 193 193 198 200 196 194 195 196 197 207 212 208 202 203 209 211 219 221 221 235
228 239 243 240 254 281 358 309 294 291 298 309 301 310 308 289 322 292 268 254 222 218 199 163 142 135 144 144 141 144 146 150 158 160 157 156 156 153 152 152 153 156 154 150 152 154 150 151 147 146 153 153 153 161 159 161 178 186 190 192 194 201 206 203 200 202 202 212 196 165 164 185 193 198 200 202 202 200 196 199 200 195 196 199 200 197 207 216 209 203 206 212 213 215 216 217 219
224 229 248 254 266 283 272 281 274 275 290 289 291 293 283 306 323 272 261 258 233 221 211 184 161 154 160 156 150 152 152 156 164 167 162 159 157 154 153 153 156 156 153 154 153 155 155 153 149 148 152 152 152 154 154 164 176 186 193 197 197 196 204 206 210 212 200 206 196 163 163 188 198 197 201 209 209 205 201 201 200 197 198 198 197 192 198 208 205 201 205 212 213 211 216 224 221
245 234 252 268 289 287 270 283 278 288 286 270 265 268 292 328 281 255 250 253 241 238 229 200 167 152 153 166 165 158 156 160 165 170 166 160 157 155 153 153 153 152 154 155 152 155 161 162 158 155 154 153 152 150 158 165 170 186 191 201 206 195 203 207 209 219 206 203 207 183 184 192 198 202 198 203 209 209 206 203 203 205 201 197 198 196 195 197 199 201 201 208 216 217 219 231 233
250 241 238 255 268 272 279 284 271 273 265 255 257 281 314 295 268 242 245 252 169 327 255 159 144 144 151 172 176 161 157 157 161 172 167 158 157 155 155 154 148 153 158 152 150 156 166 169 163 165 163 156 152 150 158 163 165 178 182 192 199 192 200 204 205 219 213 204 203 185 181 179 190 216 211 203 210 212 211 207 210 213 206 200 203 204 199 194 201 208 203 205 217 220 215 218 221
241 253 244 243 254 263 273 270 260 251 252 253 267 284 278 264 273 213 232 233 106 185 72 97 117 136 153 167 174 168 157 153 161 168 162 159 159 154 155 154 150 158 158 150 152 158 170 171 164 167 163 163 161 151 153 168 178 177 182 198 203 199 195 197 199 204 205 196 201 197 184 180 188 204 209 209 215 216 220 218 218 217 208 206 199 200 202 197 208 215 210 209 215 219 213 209 209
230 248 258 250 250 255 255 251 249 249 249 248 253 261 256 256 284 230 217 154 142 197 103 96 123 145 163 170 171 169 157 152 158 161 159 159 158 154 157 155 154 160 154 151 155 159 170 167 162 164 157 169 173 159 160 178 201 194 199 208 209 205 188 188 196 193 194 179 187 201 195 194 194 200 212 216 212 207 216 222 224 213 210 217 195 193 202 201 217 218 210 213 214 219 216 212 214
220 237 252 250 250 248 242 240 240 243 236 231 238 240 235 227 241 221 173 120 170 163 110 101 140 156 161 173 173 162 157 156 156 160 161 157 155 157 158 156 158 160 152 151 154 157 163 159 159 163 154 167 167 169 176 172 194 200 203 201 198 197 182 186 188 188 201 181 176 192 197 202 201 207 222 231 225 208 208 220 231 218 221 239 213 199 204 200 222 223 216 216 210 220 225 217 218
229 242 256 255 260 254 243 245 239 238 223 216 234 232 202 184 221 211 130 129 175 149 125 129 155 165 167 181 176 159 156 158 157 162 164 157 158 163 160 161 161 156 150 149 153 152 153 155 158 158 141 139 156 158 162 164 191 203 208 199 190 190 185 182 170 178 203 192 185 195 200 209 210 208 219 243 253 236 222 223 235 225 221 235 231 217 214 209 221 228 221 218 207 213 235 229 217
273 249 260 248 250 246 235 239 229 228 212 204 232 230 171 189 214 168 126 151 168 139 139 159 167 173 184 184 169 156 155 157 162 166 168 163 163 166 164 165 160 151 149 151 151 145 147 151 143 138 124 120 138 129 128 160 206 205 208 210 186 167 169 171 174 189 199 195 201 208 208 215 220 210 215 234 240 241 238 233 234 230 225 227 226 223 225 222 223 232 224 224 222 199 227 230 217
250 244 258 240 232 225 218 224 212 215 198 183 226 226 185 200 179 111 134 158 160 139 142 167 173 171 182 184 163 156 159 159 165 169 172 169 163 165 164 162 158 150 151 151 142 139 142 138 130 127 118 118 122 106 110 157 233 236 225 221 181 149 153 165 183 189 180 180 197 215 211 210 218 211 217 229 233 236 237 241 239 235 235 228 225 226 229 226 221 229 222 223 232 195 200 209 213
241 230 248 246 231 205 192 208 199 202 178 161 221 229 194 188 140 119 145 163 172 161 158 165 174 170 172 181 166 158 162 164 166 170 173 169 162 164 162 157 159 155 149 148 142 140 143 138 135 134 129 129 129 129 139 155 222 254 255 248 169 153 156 155 180 185 177 177 176 195 207 207 212 206 213 225 233 235 236 246 245 243 244 232 231 232 232 233 227 232 230 219 216 207 211 215 217
232 223 224 238 240 178 161 184 196 193 154 166 221 239 204 160 130 136 150 175 189 175 173 164 161 180 172 175 177 161 161 167 166 169 171 166 160 161 159 156 160 157 148 148 147 145 146 143 143 141 139 140 136 140 146 127 133 216 303 69 44 357 150 148 174 190 198 196 176 187 215 221 229 225 221 228 233 236 239 243 240 241 246 234 236 239 235 235 231 234 239 233 208 202 218 221 215
224 228 212 227 239 151 149 173 201 205 164 185 219 239 203 153 136 151 157 191 201 188 186 162 153 171 172 165 189 172 158 166 169 168 166 161 157 157 156 157 159 157 148 149 150 149 149 146 142 141 143 143 140 141 135 118 109 105 78 83 59 32 99 141 149 183 186 179 172 180 207 220 240 236 226 233 237 243 245 245 243 242 243 235 234 238 242 237 228 226 234 238 220 209 214 213 209
212 233 224 225 212 154 159 177 197 212 172 186 216 247 218 132 131 157 166 199 209 200 194 176 164 163 169 177 191 189 165 169 173 165 161 158 155 155 155 157 158 154 149 151 153 152 151 148 144 142 145 145 143 143 137 127 116 117 107 104 90 60 76 110 142 192 150 127 160 146 158 191 225 229 226 238 246 251 250 252 256 253 248 241 232 229 238 238 228 224 229 230 227 223 220 211 206
196 225 246 240 236 205 167 167 183 196 202 203 206 237 241 120 136 164 171 197 205 212 203 191 187 166 166 178 190 192 173 174 176 162 162 159 153 155 156 157 158 153 151 154 154 155 153 149 147 146 149 149 146 147 141 135 126 123 114 104 88 73 69 55 85 121 117 126 140 113 132 173 217 241 239 247 255 259 257 257 259 259 253 243 241 238 233 234 230 228 230 230 232 233 229 220 206
212 205 235 222 245 270 194 144 168 187 216 231 205 221 239 172 163 182 182 198 200 211 212 197 206 181 165 174 189 190 176 184 181 162 161 161 154 156 158 158 160 156 156 157 154 156 154 150 151 150 153 152 149 151 145 140 140 135 127 123 113 125 120 84 79 80 82 90 88 95 129 208 259 267 268 270 266 271 275 269 265 266 257 244 246 242 230 234 236 235 234 233 242 243 239 233 206
318 251 261 235 215 235 191 112 127 206 223 242 219 217 243 220 195 200 188 200 215 214 213 203 211 200 185 190 188 178 181 193 185 165 161 162 159 158 158 158 161 161 160 159 156 158 156 152 154 153 156 155 152 156 155 155 156 149 145 144 134 126 112 96 94 96 90 82 84 90 76 344 298 322 312 296 283 287 290 285 291 285 266 248 236 235 234 239 233 235 240 238 242 246 250 249 210
322 301 282 268 239 224 197 118 118 244 252 243 228 218 249 248 218 218 197 203 225 220 212 211 216 212 205 209 191 172 173 183 185 172 163 163 163 161 160 161 163 163 165 164 161 162 159 157 157 156 158 159 160 164 165 167 164 157 155 149 142 138 126 119 115 96 90 82 74 72 63 38 348 344 326 321 313 298 295 295 308 314 294 250 220 222 235 240 228 233 248 245 242 242 252 258 236
287 272 263 253 247 242 221 104 119 190 250 251 240 227 252 257 232 219 213 219 225 221 217 211 215 220 213 214 201 173 160 170 189 182 169 166 164 165 166 166 169 169 171 171 168 166 163 161 160 159 160 161 167 168 166 169 165 156 155 150 146 138 127 127 124 102 97 93 78 68 57 46 11 340 335 344 320 294 297 299 318 339 345 31 183 189 209 238 231 235 250 244 243 245 245 252 251
264 256 259 251 243 239 110 102 166 191 239 256 246 229 241 251 240 211 207 230 230 220 223 217 214 219 214 214 206 180 172 177 186 185 178 173 167 169 172 172 176 176 175 176 174 172 168 167 164 161 163 163 166 167 165 167 158 144 142 141 138 126 112 106 110 109 108 102 90 81 69 61 36 7 14 3 330 344 338 317 336 352 3 41 50 70 127 162 184 223 244 233 234 244 244 247 247
249 247 253 250 243 252 199 150 209 226 252 277 275 256 248 255 245 214 207 228 231 217 221 221 216 217 215 214 207 194 187 176 176 184 184 181 173 173 177 177 179 180 179 179 179 178 174 173 169 165 165 164 164 166 163 157 147 137 131 128 119 117 119 117 118 118 114 108 99 85 78 74 54 55 65 57 50 37 13 349 350 356 1 16 23 41 72 69 79 102 225 219 221 240 246 246 245
233 238 255 261 246 265 277 170 193 243 236 255 272 264 246 244 238 223 209 213 220 210 209 213 211 213 217 217 215 215 198 171 177 198 197 191 182 178 181 181 181 183 182 181 181 181 178 175 171 167 166 165 163 164 161 153 149 144 139 134 123 122 132 140 138 131 126 120 106 94 94 90 73 67 66 61 64 59 33 13 358 358 4 3 5 18 43 44 48 56 53 69 132 234 253 234 221
237 222 239 271 271 264 264 215 196 245 234 209 230 254 250 239 235 228 203 195 210 206 203 206 202 202 207 209 216 232 221 181 184 205 208 203 192 186 185 183 184 187 185 183 181 181 179 175 173 169 166 165 163 163 162 158 158 158 156 153 149 146 150 153 148 140 136 127 113 109 106 96 85 78 71 67 68 62 48 38 15 6 16 17 12 23 34 32 32 28 18 39 90 116 10 123 149
262 211 212 250 263 252 249 243 226 248 260 181 194 255 267 244 231 222 199 196 206 202 203 207 199 196 202 204 202 208 213 198 201 211 212 209 200 194 191 187 188 188 185 183 181 181 179 176 174 170 167 166 163 164 164 163 166 169 170 166 162 161 156 148 143 140 134 125 122 120 113 106 99 88 79 76 73 63 55 48 33 22 32 38 32 41 45 39 41 34 18 17 38 46 34 86 116
282 26 229 234 249 246 241 249 244 258 274 193 192 239 264 258 235 201 194 207 209 195 198 211 205 198 201 206 203 199 197 190 203 213 211 211 206 203 200 195 192 189 185 184 181 180 179 177 176 172 169 166 164 165 167 169 171 173 177 171 165 165 153 144 142 141 136 130 132 131 126 124 115 103 93 90 87 79 72 65 54 44 39 42 50 57 52 48 55 52 43 34 28 28 22 41 84
292 11 271 252 258 254 245 250 249 259 270 247 225 231 251 260 241 181 187 218 228 204 190 207 213 204 199 198 200 195 179 180 206 215 213 215 213 209 205 201 198 192 187 185 182 179 179 178 176 174 172 167 166 168 169 174 176 176 179 173 168 165 151 149 152 147 144 140 140 140 134 133 126 115 106 100 101 96 92 83 66 52 38 33 42 55 57 54 56 53 52 51 47 48 38 25 27
291 318 267 253 255 248 244 251 250 253 251 254 250 234 243 261 244 207 199 222 243 211 179 203 214 207 195 171 178 201 195 202 217 218 213 220 224 219 209 202 199 195 190 186 181 179 178 179 177 176 174 169 168 170 170 175 178 178 181 176 172 166 156 159 160 152 153 153 150 149 145 142 137 129 121 115 114 109 103 91 75 60 43 37 42 53 57 56 58 56 55 56 54 56 55 46 37
279 278 254 242 245 241 239 245 250 256 245 243 246 236 240 256 248 233 193 215 271 195 166 197 208 196 173 137 202 226 224 248 250 234 208 211 228 230 218 206 198 195 193 187 181 180 179 179 178 177 176 173 171 171 172 176 178 181 183 180 175 169 162 164 163 161 166 166 162 161 160 154 146 142 138 134 128 122 115 101 87 72 57 47 47 50 52 56 61 61 59 59 58 57 57 56 51
254 252 246 238 235 232 235 240 235 245 253 249 245 233 231 245 257 246 133 142 255 172 170 189 195 184 106 65 279 291 347 320 308 322 42 80 231 229 222 210 198 194 193 190 184 181 180 180 179 177 176 175 173 173 175 176 179 183 184 181 179 173 169 169 168 169 173 173 173 174 170 163 158 156 156 154 149 142 132 120 106 89 73 57 49 48 51 57 61 62 62 61 60 59 57 54 55
240 238 241 243 238 229 232 236 228 237 252 257 251 230 224 246 262 220 149 154 153 144 210 169 168 115 43 330 297 14 360 343 353 14 42 41 332 228 218 209 199 193 195 195 188 182 181 181 179 178 178 177 175 175 177 178 180 183 184 183 182 178 176 177 176 175 177 179 180 181 179 174 170 169 171 171 167 164 156 145 137 116 93 77 67 61 61 63 66 67 66 65 63 62 57 57 56
236 238 236 239 241 241 242 240 236 241 239 212 63 282 244 257 268 150 140 129 115 130 136 109 124 116 72 304 6 37 21 19 22 26 39 38 21 259 205 202 199 199 202 204 196 185 182 182 182 181 179 177 175 175 178 181 182 183 185 185 185 184 182 183 184 182 183 186 185 185 189 187 180 179 181 181 177 176 175 167 160 145 129 119 103 92 84 79 74 76 74 69 66 65 61 60 58
241 245 241 242 250 253 256 263 263 268 265 205 156 203 254 252 254 103 119 124 126 136 135 131 137 131 110 57 42 42 37 35 36 39 42 42 39 35 183 198 204 205 208 211 205 192 183 183 184 183 181 178 177 176 179 183 183 184 186 187 189 190 189 189 191 190 187 191 190 187 191 195 190 186 186 185 182 183 184 180 176 168 161 156 144 133 120 105 93 87 85 79 72 68 65 62 59
244 249 240 238 253 258 266 280 282 299 302 258 204 219 255 181 144 137 124 135 145 143 142 143 136 119 103 87 70 59 52 46 48 53 53 57 59 53 108 185 200 204 207 209 207 199 189 183 184 184 183 180 178 178 180 184 184 186 189 192 194 196 196 196 197 197 193 193 194 190 192 197 196 191 189 186 183 187 189 187 187 183 177 175 169 166 165 146 141 129 115 111 103 90 83 79 72
265 251 248 253 260 263 269 269 257 235 260 260 237 239 249 208 178 172 164 162 154 157 160 147 129 117 106 91 77 67 61 56 56 60 60 63 68 73 97 136 170 185 195 198 199 197 189 181 180 182 183 181 182 181 181 183 185 188 191 194 198 201 203 204 203 203 198 194 197 196 194 195 196 196 191 187 187 191 193 192 194 192 187 188 183 182 184 175 175 171 153 149 145 138 130 115 101
275 258 273 287 269 266 272 267 256 246 256 255 244 250 249 245 219 169 182 191 170 175 169 144 133 123 106 91 81 71 64 62 61 64 64 61 61 68 87 108 128 149 164 172 179 183 181 179 177 179 181 181 182 182 183 186 187 190 194 197 201 203 206 210 211 209 205 201 201 201 200 198 197 198 194 189 190 193 195 196 198 198 194 194 192 192 192 188 193 189 175 175 167 162 166 156 146
252 272 299 289 261 258 252 257 264 262 266 265 257 261 256 252 226 164 195 206 176 177 173 153 149 129 108 96 88 77 69 66 63 64 64 64 64 65 72 82 99 118 130 139 147 150 155 163 166 172 180 182 181 181 185 189 190 193 200 202 204 207 209 213 216 216 212 210 210 210 209 206 201 200 197 193 193 195 196 198 201 202 200 198 197 197 196 193 200 198 192 195 186 184 191 177 169
228 255 264 253 259 271 262 257 264 264 268 272 271 268 256 262 239 157 192 208 179 175 177 164 146 123 110 102 93 83 76 71 67 67 65 67 72 72 74 76 84 97 104 112 118 122 130 135 137 149 165 176 181 181 182 187 190 195 205 212 214 214 215 216 219 223 222 220 221 220 219 216 209 206 203 197 196 198 198 199 202 204 202 202 201 200 198 198 202 201 203 205 196 199 208 196 188
227 240 245 242 245 259 266 261 256 263 269 272 274 269 255 297 29 106 212 203 176 171 172 154 133 122 115 103 97 90 85 80 75 76 73 72 75 77 82 87 91 94 94 96 100 102 106 106 110 125 140 156 174 180 179 188 198 201 211 223 229 228 227 225 225 229 231 229 228 228 227 226 219 215 213 207 203 204 203 202 203 205 205 204 204 203 200 199 201 201 204 206 196 201 215 209 200
278 271 267 267 258 255 263 262 256 262 269 273 276 274 281 40 36 287 259 195 166 170 165 146 132 127 118 108 104 99 95 92 86 86 83 81 82 79 80 82 85 89 90 92 98 100 101 103 104 108 116 130 154 176 178 187 202 210 214 219 229 238 240 238 235 235 237 236 236 235 232 231 227 223 221 217 214 212 209 207 207 208 208 208 207 205 201 200 202 202 201 201 198 203 213 210 205